owner,sensor,date,latitude,longitude,vertical_datum,wind_speed,wind_to_direction,wind_speed_of_gust,qcFlag 
TCOON,ioos:station:TCOON:013:1,2017-02-01T00:00:00Z,27.4847,-97.3181,0.0,5.9,134.0,7.7,'11111222,11111222,11111222' 
TCOON,ioos:station:TCOON:013:1,2017-02-01T00:06:00Z,27.4847,-97.3181,0.0,6.1,137.0,7.4,'11111222,11111222,11111222' 
TCOON,ioos:station:TCOON:013:1,2017-02-01T00:12:00Z,27.4847,-97.3181,0.0,5.5,134.0,6.8,'11111222,11111222,11111222' 
TCOON,ioos:station:TCOON:013:1,2017-02-01T00:18:00Z,27.4847,-97.3181,0.0,5.8,134.0,7.0,'11111222,11111222,11111222' 
TCOON,ioos:station:TCOON:013:1,2017-02-01T00:24:00Z,27.4847,-97.3181,0.0,5.6,137.0,6.8,'11111222,11111222,11111222' 
TCOON,ioos:station:TCOON:013:1,2017-02-01T00:30:00Z,27.4847,-97.3181,0.0,5.5,136.0,6.9,'11111222,11111222,11111222' 
TCOON,ioos:station:TCOON:013:1,2017-02-01T00:36:00Z,27.4847,-97.3181,0.0,5.6,136.0,6.7,'11111222,11111222,11111222' 
TCOON,ioos:station:TCOON:013:1,2017-02-01T00:42:00Z,27.4847,-97.3181,0.0,5.5,137.0,6.8,'11111222,11111222,11111222' 
TCOON,ioos:station:TCOON:013:1,2017-02-01T00:54:00Z,27.4847,-97.3181,0.0,5.1,135.0,7.1,'11111222,11111222,11111222' 
TCOON,ioos:station:TCOON:013:1,2017-02-01T01:12:00Z,27.4847,-97.3181,0.0,5.6,136.0,6.8,'11111222,11111222,11111222' 
TCOON,ioos:station:TCOON:013:1,2017-02-01T01:18:00Z,27.4847,-97.3181,0.0,5.6,136.0,7.0,'11111222,11111222,11111222' 
TCOON,ioos:station:TCOON:013:1,2017-02-01T01:24:00Z,27.4847,-97.3181,0.0,5.8,137.0,6.7,'11111222,11111222,11111222' 
TCOON,ioos:station:TCOON:013:1,2017-02-01T01:30:00Z,27.4847,-97.3181,0.0,5.6,137.0,7.1,'11111222,11111222,11111222' 
TCOON,ioos:station:TCOON:013:1,2017-02-01T01:36:00Z,27.4847,-97.3181,0.0,5.2,139.0,6.9,'11111222,11111222,11111222' 
TCOON,ioos:station:TCOON:013:1,2017-02-01T01:54:00Z,27.4847,-97.3181,0.0,5.2,141.0,6.9,'11111222,11111222,11111222' 
TCOON,ioos:station:TCOON:013:1,2017-02-01T02:00:00Z,27.4847,-97.3181,0.0,5.8,145.0,6.7,'11111222,11111222,11111222' 
TCOON,ioos:station:TCOON:013:1,2017-02-01T02:06:00Z,27.4847,-97.3181,0.0,6.0,146.0,7.4,'11111222,11111222,11111222' 
TCOON,ioos:station:TCOON:013:1,2017-02-01T02:12:00Z,27.4847,-97.3181,0.0,5.9,145.0,6.8,'11111222,11111222,11111222' 
TCOON,ioos:station:TCOON:013:1,2017-02-01T02:18:00Z,27.4847,-97.3181,0.0,5.8,148.0,7.1,'11111222,11111222,11111222' 
TCOON,ioos:station:TCOON:013:1,2017-02-01T02:24:00Z,27.4847,-97.3181,0.0,6.1,148.0,6.9,'11111222,11111222,11111222' 
TCOON,ioos:station:TCOON:013:1,2017-02-01T02:30:00Z,27.4847,-97.3181,0.0,6.1,151.0,7.3,'11111222,11111222,11111222' 
TCOON,ioos:station:TCOON:013:1,2017-02-01T02:36:00Z,27.4847,-97.3181,0.0,6.3,152.0,7.6,'11111222,11111222,11111222' 
TCOON,ioos:station:TCOON:013:1,2017-02-01T02:42:00Z,27.4847,-97.3181,0.0,5.7,153.0,7.3,'11111222,11111222,11111222' 
TCOON,ioos:station:TCOON:013:1,2017-02-01T02:48:00Z,27.4847,-97.3181,0.0,6.3,156.0,7.1,'11111222,11111222,11111222' 
TCOON,ioos:station:TCOON:013:1,2017-02-01T02:54:00Z,27.4847,-97.3181,0.0,6.3,158.0,7.3,'11111222,11111222,11111222' 
TCOON,ioos:station:TCOON:013:1,2017-02-01T03:06:00Z,27.4847,-97.3181,0.0,6.6,160.0,7.7,'11111222,11111222,11111222' 
TCOON,ioos:station:TCOON:013:1,2017-02-01T03:12:00Z,27.4847,-97.3181,0.0,6.3,161.0,7.6,'11111222,11111222,11111222' 
TCOON,ioos:station:TCOON:013:1,2017-02-01T03:18:00Z,27.4847,-97.3181,0.0,6.5,160.0,8.1,'11111222,11111222,11111222' 
TCOON,ioos:station:TCOON:013:1,2017-02-01T03:24:00Z,27.4847,-97.3181,0.0,6.7,163.0,7.9,'11111222,11111222,11111222' 
TCOON,ioos:station:TCOON:013:1,2017-02-01T03:30:00Z,27.4847,-97.3181,0.0,6.4,161.0,7.5,'11111222,11111222,11111222' 
TCOON,ioos:station:TCOON:013:1,2017-02-01T03:36:00Z,27.4847,-97.3181,0.0,6.3,161.0,7.6,'11111222,11111222,11111222' 
TCOON,ioos:station:TCOON:013:1,2017-02-01T03:42:00Z,27.4847,-97.3181,0.0,6.3,162.0,7.6,'11111222,11111222,11111222' 
TCOON,ioos:station:TCOON:013:1,2017-02-01T03:48:00Z,27.4847,-97.3181,0.0,6.3,165.0,7.3,'11111222,11111222,11111222' 
TCOON,ioos:station:TCOON:013:1,2017-02-01T03:54:00Z,27.4847,-97.3181,0.0,6.2,164.0,7.6,'11111222,11111222,11111222' 
TCOON,ioos:station:TCOON:013:1,2017-02-01T04:00:00Z,27.4847,-97.3181,0.0,6.2,164.0,7.5,'11111222,11111222,11111222' 
TCOON,ioos:station:TCOON:013:1,2017-02-01T04:12:00Z,27.4847,-97.3181,0.0,6.0,166.0,6.9,'11111222,11111222,11111222' 
TCOON,ioos:station:TCOON:013:1,2017-02-01T04:24:00Z,27.4847,-97.3181,0.0,5.9,164.0,6.9,'11111222,11111222,11111222' 
TCOON,ioos:station:TCOON:013:1,2017-02-01T04:36:00Z,27.4847,-97.3181,0.0,5.4,163.0,6.3,'11111222,11111222,11111222' 
TCOON,ioos:station:TCOON:013:1,2017-02-01T04:48:00Z,27.4847,-97.3181,0.0,5.5,164.0,6.5,'11111222,11111222,11111222' 
TCOON,ioos:station:TCOON:013:1,2017-02-01T04:54:00Z,27.4847,-97.3181,0.0,5.6,164.0,6.4,'11111222,11111222,11111222' 
TCOON,ioos:station:TCOON:013:1,2017-02-01T05:00:00Z,27.4847,-97.3181,0.0,5.5,162.0,6.7,'11111222,11111222,11111222' 
TCOON,ioos:station:TCOON:013:1,2017-02-01T05:06:00Z,27.4847,-97.3181,0.0,5.3,159.0,6.5,'11111222,11111222,11111222' 
TCOON,ioos:station:TCOON:013:1,2017-02-01T05:12:00Z,27.4847,-97.3181,0.0,5.3,159.0,6.2,'11111222,11111222,11111222' 
TCOON,ioos:station:TCOON:013:1,2017-02-01T05:18:00Z,27.4847,-97.3181,0.0,5.4,159.0,6.3,'11111222,11111222,11111222' 
TCOON,ioos:station:TCOON:013:1,2017-02-01T05:24:00Z,27.4847,-97.3181,0.0,5.0,156.0,6.0,'11111222,11111222,11111222' 
TCOON,ioos:station:TCOON:013:1,2017-02-01T05:30:00Z,27.4847,-97.3181,0.0,5.2,158.0,5.8,'11111222,11111222,11111222' 
TCOON,ioos:station:TCOON:013:1,2017-02-01T05:36:00Z,27.4847,-97.3181,0.0,5.3,160.0,6.0,'11111222,11111222,11111222' 
TCOON,ioos:station:TCOON:013:1,2017-02-01T05:48:00Z,27.4847,-97.3181,0.0,4.8,157.0,5.8,'11111222,11111222,11111222' 
TCOON,ioos:station:TCOON:013:1,2017-02-01T05:54:00Z,27.4847,-97.3181,0.0,4.7,157.0,5.6,'11111222,11111222,11111222' 
TCOON,ioos:station:TCOON:013:1,2017-02-01T06:00:00Z,27.4847,-97.3181,0.0,4.4,156.0,5.6,'11111222,11111222,11111222' 
TCOON,ioos:station:TCOON:013:1,2017-02-01T06:12:00Z,27.4847,-97.3181,0.0,4.2,156.0,4.7,'11111222,11111222,11111222' 
TCOON,ioos:station:TCOON:013:1,2017-02-01T06:18:00Z,27.4847,-97.3181,0.0,3.7,157.0,4.6,'11111222,11111222,11111222' 
TCOON,ioos:station:TCOON:013:1,2017-02-01T06:24:00Z,27.4847,-97.3181,0.0,3.2,162.0,4.1,'11111222,11111222,11111222' 
TCOON,ioos:station:TCOON:013:1,2017-02-01T06:30:00Z,27.4847,-97.3181,0.0,3.2,159.0,3.7,'11111222,11111222,11111222' 
TCOON,ioos:station:TCOON:013:1,2017-02-01T06:36:00Z,27.4847,-97.3181,0.0,3.0,157.0,3.7,'11111222,11111222,11111222' 
TCOON,ioos:station:TCOON:013:1,2017-02-01T06:42:00Z,27.4847,-97.3181,0.0,3.1,154.0,3.6,'11111222,11111222,11111222' 
TCOON,ioos:station:TCOON:013:1,2017-02-01T06:48:00Z,27.4847,-97.3181,0.0,3.1,151.0,3.5,'11111222,11111222,11111222' 
TCOON,ioos:station:TCOON:013:1,2017-02-01T06:54:00Z,27.4847,-97.3181,0.0,3.1,152.0,3.5,'11111222,11111222,11111222' 
TCOON,ioos:station:TCOON:013:1,2017-02-01T07:00:00Z,27.4847,-97.3181,0.0,3.6,159.0,4.0,'11111222,11111222,11111222' 
TCOON,ioos:station:TCOON:013:1,2017-02-01T07:06:00Z,27.4847,-97.3181,0.0,3.8,162.0,4.2,'11111222,11111222,11111222' 
TCOON,ioos:station:TCOON:013:1,2017-02-01T07:12:00Z,27.4847,-97.3181,0.0,4.0,161.0,4.6,'11111222,11111222,11111222' 
TCOON,ioos:station:TCOON:013:1,2017-02-01T07:18:00Z,27.4847,-97.3181,0.0,3.8,160.0,4.7,'11111222,11111222,11111222' 
TCOON,ioos:station:TCOON:013:1,2017-02-01T07:24:00Z,27.4847,-97.3181,0.0,4.0,159.0,4.5,'11111222,11111222,11111222' 
TCOON,ioos:station:TCOON:013:1,2017-02-01T07:36:00Z,27.4847,-97.3181,0.0,4.3,157.0,4.9,'11111222,11111222,11111222' 
TCOON,ioos:station:TCOON:013:1,2017-02-01T07:48:00Z,27.4847,-97.3181,0.0,3.8,155.0,4.4,'11111222,11111222,11111222' 
TCOON,ioos:station:TCOON:013:1,2017-02-01T07:54:00Z,27.4847,-97.3181,0.0,4.1,156.0,4.7,'11111222,11111222,11111222' 
TCOON,ioos:station:TCOON:013:1,2017-02-01T08:00:00Z,27.4847,-97.3181,0.0,4.4,158.0,5.2,'11111222,11111222,11111222' 
TCOON,ioos:station:TCOON:013:1,2017-02-01T08:06:00Z,27.4847,-97.3181,0.0,4.7,161.0,5.6,'11111222,11111222,11111222' 
TCOON,ioos:station:TCOON:013:1,2017-02-01T08:12:00Z,27.4847,-97.3181,0.0,4.6,161.0,5.5,'11111222,11111222,11111222' 
TCOON,ioos:station:TCOON:013:1,2017-02-01T08:18:00Z,27.4847,-97.3181,0.0,4.5,162.0,5.3,'11111222,11111222,11111222' 
TCOON,ioos:station:TCOON:013:1,2017-02-01T08:24:00Z,27.4847,-97.3181,0.0,4.2,161.0,5.5,'11111222,11111222,11111222' 
TCOON,ioos:station:TCOON:013:1,2017-02-01T08:30:00Z,27.4847,-97.3181,0.0,4.5,161.0,5.3,'11111222,11111222,11111222' 
TCOON,ioos:station:TCOON:013:1,2017-02-01T08:42:00Z,27.4847,-97.3181,0.0,4.0,166.0,5.1,'11111222,11111222,11111222' 
TCOON,ioos:station:TCOON:013:1,2017-02-01T08:48:00Z,27.4847,-97.3181,0.0,4.1,167.0,4.7,'11111222,11111222,11111222' 
TCOON,ioos:station:TCOON:013:1,2017-02-01T09:00:00Z,27.4847,-97.3181,0.0,4.0,164.0,4.6,'11111222,11111222,11111222' 
TCOON,ioos:station:TCOON:013:1,2017-02-01T09:06:00Z,27.4847,-97.3181,0.0,3.6,164.0,4.4,'11111222,11111222,11111222' 
TCOON,ioos:station:TCOON:013:1,2017-02-01T09:12:00Z,27.4847,-97.3181,0.0,3.5,166.0,4.1,'11111222,11111222,11111222' 
TCOON,ioos:station:TCOON:013:1,2017-02-01T09:18:00Z,27.4847,-97.3181,0.0,3.4,167.0,3.9,'11111222,11111222,11111222' 
TCOON,ioos:station:TCOON:013:1,2017-02-01T09:24:00Z,27.4847,-97.3181,0.0,3.5,165.0,4.1,'11111222,11111222,11111222' 
TCOON,ioos:station:TCOON:013:1,2017-02-01T09:30:00Z,27.4847,-97.3181,0.0,3.2,164.0,3.8,'11111222,11111222,11111222' 
TCOON,ioos:station:TCOON:013:1,2017-02-01T09:36:00Z,27.4847,-97.3181,0.0,3.5,165.0,4.0,'11111222,11111222,11111222' 
TCOON,ioos:station:TCOON:013:1,2017-02-01T09:42:00Z,27.4847,-97.3181,0.0,3.6,163.0,4.0,'11111222,11111222,11111222' 
TCOON,ioos:station:TCOON:013:1,2017-02-01T09:48:00Z,27.4847,-97.3181,0.0,3.6,161.0,4.3,'11111222,11111222,11111222' 
TCOON,ioos:station:TCOON:013:1,2017-02-01T09:54:00Z,27.4847,-97.3181,0.0,3.3,162.0,4.1,'11111222,11111222,11111222' 
TCOON,ioos:station:TCOON:013:1,2017-02-01T10:00:00Z,27.4847,-97.3181,0.0,3.0,163.0,3.7,'11111222,11111222,11111222' 
TCOON,ioos:station:TCOON:013:1,2017-02-01T10:06:00Z,27.4847,-97.3181,0.0,3.1,159.0,3.4,'11111222,11111222,11111222' 
TCOON,ioos:station:TCOON:013:1,2017-02-01T10:12:00Z,27.4847,-97.3181,0.0,3.0,155.0,3.6,'11111222,11111222,11111222' 
TCOON,ioos:station:TCOON:013:1,2017-02-01T10:24:00Z,27.4847,-97.3181,0.0,3.2,153.0,3.6,'11111222,11111222,11111222' 
TCOON,ioos:station:TCOON:013:1,2017-02-01T10:36:00Z,27.4847,-97.3181,0.0,2.4,149.0,2.9,'11111222,11111222,11111222' 
TCOON,ioos:station:TCOON:013:1,2017-02-01T10:42:00Z,27.4847,-97.3181,0.0,2.3,149.0,2.6,'11111222,11111222,11111222' 
TCOON,ioos:station:TCOON:013:1,2017-02-01T10:48:00Z,27.4847,-97.3181,0.0,2.3,152.0,2.7,'11111222,11111222,11111222' 
TCOON,ioos:station:TCOON:013:1,2017-02-01T10:54:00Z,27.4847,-97.3181,0.0,2.1,148.0,2.6,'11111222,11111222,11111222' 
TCOON,ioos:station:TCOON:013:1,2017-02-01T11:00:00Z,27.4847,-97.3181,0.0,2.3,151.0,2.5,'11111222,11111222,11111222' 
TCOON,ioos:station:TCOON:013:1,2017-02-01T11:06:00Z,27.4847,-97.3181,0.0,2.4,146.0,2.8,'11111222,11111222,11111222' 
TCOON,ioos:station:TCOON:013:1,2017-02-01T11:24:00Z,27.4847,-97.3181,0.0,3.4,154.0,3.8,'11111222,11111222,11111222' 
TCOON,ioos:station:TCOON:013:1,2017-02-01T11:36:00Z,27.4847,-97.3181,0.0,3.6,156.0,4.4,'11111222,11111222,11111222' 
TCOON,ioos:station:TCOON:013:1,2017-02-01T11:48:00Z,27.4847,-97.3181,0.0,3.3,156.0,4.1,'11111222,11111222,11111222' 
TCOON,ioos:station:TCOON:013:1,2017-02-01T12:00:00Z,27.4847,-97.3181,0.0,3.0,157.0,3.6,'11111222,11111222,11111222' 
TCOON,ioos:station:TCOON:013:1,2017-02-01T12:06:00Z,27.4847,-97.3181,0.0,2.9,159.0,3.4,'11111222,11111222,11111222' 
TCOON,ioos:station:TCOON:013:1,2017-02-01T12:12:00Z,27.4847,-97.3181,0.0,3.1,162.0,3.4,'11111222,11111222,11111222' 
TCOON,ioos:station:TCOON:013:1,2017-02-01T12:24:00Z,27.4847,-97.3181,0.0,3.2,157.0,3.7,'11111222,11111222,11111222' 
TCOON,ioos:station:TCOON:013:1,2017-02-01T12:30:00Z,27.4847,-97.3181,0.0,3.1,157.0,3.5,'11111222,11111222,11111222' 
TCOON,ioos:station:TCOON:013:1,2017-02-01T12:36:00Z,27.4847,-97.3181,0.0,3.0,156.0,3.5,'11111222,11111222,11111222' 
TCOON,ioos:station:TCOON:013:1,2017-02-01T12:42:00Z,27.4847,-97.3181,0.0,2.8,158.0,3.5,'11111222,11111222,11111222' 
TCOON,ioos:station:TCOON:013:1,2017-02-01T12:48:00Z,27.4847,-97.3181,0.0,2.6,158.0,3.1,'11111222,11111222,11111222' 
TCOON,ioos:station:TCOON:013:1,2017-02-01T12:54:00Z,27.4847,-97.3181,0.0,2.8,160.0,3.2,'11111222,11111222,11111222' 
TCOON,ioos:station:TCOON:013:1,2017-02-01T13:00:00Z,27.4847,-97.3181,0.0,2.6,161.0,3.2,'11111222,11111222,11111222' 
TCOON,ioos:station:TCOON:013:1,2017-02-01T13:12:00Z,27.4847,-97.3181,0.0,2.4,157.0,2.9,'11111222,11111222,11111222' 
TCOON,ioos:station:TCOON:013:1,2017-02-01T13:24:00Z,27.4847,-97.3181,0.0,2.7,157.0,3.0,'11111222,11111222,11111222' 
TCOON,ioos:station:TCOON:013:1,2017-02-01T13:30:00Z,27.4847,-97.3181,0.0,3.1,158.0,3.4,'11111222,11111222,11111222' 
TCOON,ioos:station:TCOON:013:1,2017-02-01T13:36:00Z,27.4847,-97.3181,0.0,3.2,154.0,3.5,'11111222,11111222,11111222' 
TCOON,ioos:station:TCOON:013:1,2017-02-01T13:42:00Z,27.4847,-97.3181,0.0,3.5,158.0,3.8,'11111222,11111222,11111222' 
TCOON,ioos:station:TCOON:013:1,2017-02-01T13:48:00Z,27.4847,-97.3181,0.0,3.7,158.0,4.1,'11111222,11111222,11111222' 
TCOON,ioos:station:TCOON:013:1,2017-02-01T13:54:00Z,27.4847,-97.3181,0.0,3.9,158.0,4.6,'11111222,11111222,11111222' 
TCOON,ioos:station:TCOON:013:1,2017-02-01T14:00:00Z,27.4847,-97.3181,0.0,4.2,158.0,4.8,'11111222,11111222,11111222' 
TCOON,ioos:station:TCOON:013:1,2017-02-01T14:06:00Z,27.4847,-97.3181,0.0,4.3,160.0,4.8,'11111222,11111222,11111222' 
TCOON,ioos:station:TCOON:013:1,2017-02-01T14:12:00Z,27.4847,-97.3181,0.0,4.5,160.0,5.2,'11111222,11111222,11111222' 
TCOON,ioos:station:TCOON:013:1,2017-02-01T14:18:00Z,27.4847,-97.3181,0.0,4.4,163.0,5.1,'11111222,11111222,11111222' 
TCOON,ioos:station:TCOON:013:1,2017-02-01T14:24:00Z,27.4847,-97.3181,0.0,4.4,164.0,5.5,'11111222,11111222,11111222' 
TCOON,ioos:station:TCOON:013:1,2017-02-01T14:30:00Z,27.4847,-97.3181,0.0,4.2,168.0,5.1,'11111222,11111222,11111222' 
TCOON,ioos:station:TCOON:013:1,2017-02-01T14:42:00Z,27.4847,-97.3181,0.0,4.0,170.0,4.8,'11111222,11111222,11111222' 
TCOON,ioos:station:TCOON:013:1,2017-02-01T14:48:00Z,27.4847,-97.3181,0.0,3.8,168.0,5.2,'11111222,11111222,11111222' 
TCOON,ioos:station:TCOON:013:1,2017-02-01T14:54:00Z,27.4847,-97.3181,0.0,3.5,171.0,4.3,'11111222,11111222,11111222' 
TCOON,ioos:station:TCOON:013:1,2017-02-01T15:00:00Z,27.4847,-97.3181,0.0,3.3,172.0,4.0,'11111222,11111222,11111222' 
TCOON,ioos:station:TCOON:013:1,2017-02-01T15:12:00Z,27.4847,-97.3181,0.0,3.6,169.0,4.7,'11111222,11111222,11111222' 
TCOON,ioos:station:TCOON:013:1,2017-02-01T15:18:00Z,27.4847,-97.3181,0.0,4.2,169.0,4.9,'11111222,11111222,11111222' 
TCOON,ioos:station:TCOON:013:1,2017-02-01T15:24:00Z,27.4847,-97.3181,0.0,4.2,172.0,5.4,'11111222,11111222,11111222' 
TCOON,ioos:station:TCOON:013:1,2017-02-01T15:30:00Z,27.4847,-97.3181,0.0,4.3,176.0,5.2,'11111222,11111222,11111222' 
TCOON,ioos:station:TCOON:013:1,2017-02-01T15:36:00Z,27.4847,-97.3181,0.0,4.6,180.0,5.8,'11111222,11111222,11111222' 
TCOON,ioos:station:TCOON:013:1,2017-02-01T15:42:00Z,27.4847,-97.3181,0.0,4.4,186.0,5.5,'11111222,11111222,11111222' 
TCOON,ioos:station:TCOON:013:1,2017-02-01T15:48:00Z,27.4847,-97.3181,0.0,4.1,188.0,4.8,'11111222,11111222,11111222' 
TCOON,ioos:station:TCOON:013:1,2017-02-01T15:54:00Z,27.4847,-97.3181,0.0,4.1,194.0,4.7,'11111222,11111222,11111222' 
TCOON,ioos:station:TCOON:013:1,2017-02-01T16:00:00Z,27.4847,-97.3181,0.0,3.9,191.0,4.4,'11111222,11111222,11111222' 
TCOON,ioos:station:TCOON:013:1,2017-02-01T16:06:00Z,27.4847,-97.3181,0.0,3.8,200.0,4.1,'11111222,11111222,11111222' 
TCOON,ioos:station:TCOON:013:1,2017-02-01T16:12:00Z,27.4847,-97.3181,0.0,2.7,207.0,3.7,'11111222,11111222,11111222' 
TCOON,ioos:station:TCOON:013:1,2017-02-01T16:18:00Z,27.4847,-97.3181,0.0,2.9,206.0,3.8,'11111222,11111222,11111222' 
TCOON,ioos:station:TCOON:013:1,2017-02-01T16:24:00Z,27.4847,-97.3181,0.0,2.4,198.0,3.4,'11111222,11111222,11111222' 
TCOON,ioos:station:TCOON:013:1,2017-02-01T16:30:00Z,27.4847,-97.3181,0.0,2.9,205.0,3.5,'11111222,11111222,11111222' 
TCOON,ioos:station:TCOON:013:1,2017-02-01T16:42:00Z,27.4847,-97.3181,0.0,3.0,205.0,3.7,'11111222,11111222,11111222' 
TCOON,ioos:station:TCOON:013:1,2017-02-01T16:48:00Z,27.4847,-97.3181,0.0,2.8,207.0,3.5,'11111222,11111222,11111222' 
TCOON,ioos:station:TCOON:013:1,2017-02-01T16:54:00Z,27.4847,-97.3181,0.0,2.7,213.0,3.2,'11111222,11111222,11111222' 
TCOON,ioos:station:TCOON:013:1,2017-02-01T17:00:00Z,27.4847,-97.3181,0.0,2.9,197.0,3.3,'11111222,11111222,11111222' 
TCOON,ioos:station:TCOON:013:1,2017-02-01T17:06:00Z,27.4847,-97.3181,0.0,2.5,187.0,2.9,'11111222,11111222,11111222' 
TCOON,ioos:station:TCOON:013:1,2017-02-01T17:18:00Z,27.4847,-97.3181,0.0,3.2,179.0,4.0,'11111222,11111222,11111222' 
TCOON,ioos:station:TCOON:013:1,2017-02-01T17:24:00Z,27.4847,-97.3181,0.0,5.6,163.0,7.2,'11111222,11111222,11111222' 
TCOON,ioos:station:TCOON:013:1,2017-02-01T17:30:00Z,27.4847,-97.3181,0.0,6.2,161.0,8.1,'11111222,11111222,11111222' 
TCOON,ioos:station:TCOON:013:1,2017-02-01T17:36:00Z,27.4847,-97.3181,0.0,6.4,160.0,8.2,'11111222,11111222,11111222' 
TCOON,ioos:station:TCOON:013:1,2017-02-01T17:42:00Z,27.4847,-97.3181,0.0,6.4,159.0,7.9,'11111222,11111222,11111222' 
TCOON,ioos:station:TCOON:013:1,2017-02-01T17:54:00Z,27.4847,-97.3181,0.0,6.4,162.0,7.6,'11111222,11111222,11111222' 
TCOON,ioos:station:TCOON:013:1,2017-02-01T18:00:00Z,27.4847,-97.3181,0.0,6.8,153.0,7.7,'11111222,11111222,11111222' 
TCOON,ioos:station:TCOON:013:1,2017-02-01T18:06:00Z,27.4847,-97.3181,0.0,6.1,155.0,8.7,'11111222,11111222,11111222' 
TCOON,ioos:station:TCOON:013:1,2017-02-01T18:12:00Z,27.4847,-97.3181,0.0,6.7,155.0,7.5,'11111222,11111222,11111222' 
TCOON,ioos:station:TCOON:013:1,2017-02-01T18:18:00Z,27.4847,-97.3181,0.0,6.2,157.0,8.4,'11111222,11111222,11111222' 
TCOON,ioos:station:TCOON:013:1,2017-02-01T18:24:00Z,27.4847,-97.3181,0.0,6.8,154.0,9.6,'11111222,11111222,11111222' 
TCOON,ioos:station:TCOON:013:1,2017-02-01T18:30:00Z,27.4847,-97.3181,0.0,6.6,155.0,8.5,'11111222,11111222,11111222' 
TCOON,ioos:station:TCOON:013:1,2017-02-01T18:36:00Z,27.4847,-97.3181,0.0,5.8,149.0,8.8,'11111222,11111222,11111222' 
TCOON,ioos:station:TCOON:013:1,2017-02-01T18:42:00Z,27.4847,-97.3181,0.0,7.1,151.0,8.4,'11111222,11111222,11111222' 
TCOON,ioos:station:TCOON:013:1,2017-02-01T18:48:00Z,27.4847,-97.3181,0.0,6.8,152.0,8.3,'11111222,11111222,11111222' 
TCOON,ioos:station:TCOON:013:1,2017-02-01T18:54:00Z,27.4847,-97.3181,0.0,7.5,149.0,10.5,'11111222,11111222,11111222' 
TCOON,ioos:station:TCOON:013:1,2017-02-01T19:00:00Z,27.4847,-97.3181,0.0,7.0,146.0,9.1,'11111222,11111222,11111222' 
TCOON,ioos:station:TCOON:013:1,2017-02-01T19:06:00Z,27.4847,-97.3181,0.0,7.1,147.0,9.1,'11111222,11111222,11111222' 
TCOON,ioos:station:TCOON:013:1,2017-02-01T19:12:00Z,27.4847,-97.3181,0.0,7.5,146.0,9.9,'11111222,11111222,11111222' 
TCOON,ioos:station:TCOON:013:1,2017-02-01T19:18:00Z,27.4847,-97.3181,0.0,7.6,147.0,9.2,'11111222,11111222,11111222' 
TCOON,ioos:station:TCOON:013:1,2017-02-01T19:30:00Z,27.4847,-97.3181,0.0,7.3,144.0,9.3,'11111222,11111222,11111222' 
TCOON,ioos:station:TCOON:013:1,2017-02-01T19:36:00Z,27.4847,-97.3181,0.0,8.0,142.0,9.2,'11111222,11111222,11111222' 
TCOON,ioos:station:TCOON:013:1,2017-02-01T19:42:00Z,27.4847,-97.3181,0.0,7.9,145.0,10.4,'11111222,11111222,11111222' 
TCOON,ioos:station:TCOON:013:1,2017-02-01T19:48:00Z,27.4847,-97.3181,0.0,7.8,143.0,9.9,'11111222,11111222,11111222' 
TCOON,ioos:station:TCOON:013:1,2017-02-01T19:54:00Z,27.4847,-97.3181,0.0,8.3,144.0,9.9,'11111222,11111222,11111222' 
TCOON,ioos:station:TCOON:013:1,2017-02-01T20:00:00Z,27.4847,-97.3181,0.0,8.0,142.0,9.9,'11111222,11111222,11111222' 
TCOON,ioos:station:TCOON:013:1,2017-02-01T20:06:00Z,27.4847,-97.3181,0.0,8.5,139.0,10.5,'11111222,11111222,11111222' 
TCOON,ioos:station:TCOON:013:1,2017-02-01T20:12:00Z,27.4847,-97.3181,0.0,7.9,142.0,10.1,'11111222,11111222,11111222' 
TCOON,ioos:station:TCOON:013:1,2017-02-01T20:18:00Z,27.4847,-97.3181,0.0,7.8,142.0,9.8,'11111222,11111222,11111222' 
TCOON,ioos:station:TCOON:013:1,2017-02-01T20:24:00Z,27.4847,-97.3181,0.0,7.6,144.0,10.2,'11111222,11111222,11111222' 
TCOON,ioos:station:TCOON:013:1,2017-02-01T20:36:00Z,27.4847,-97.3181,0.0,8.1,138.0,10.1,'11111222,11111222,11111222' 
TCOON,ioos:station:TCOON:013:1,2017-02-01T20:42:00Z,27.4847,-97.3181,0.0,7.9,136.0,9.5,'11111222,11111222,11111222' 
TCOON,ioos:station:TCOON:013:1,2017-02-01T20:48:00Z,27.4847,-97.3181,0.0,8.0,139.0,10.1,'11111222,11111222,11111222' 
TCOON,ioos:station:TCOON:013:1,2017-02-01T20:54:00Z,27.4847,-97.3181,0.0,7.9,140.0,10.1,'11111222,11111222,11111222' 
TCOON,ioos:station:TCOON:013:1,2017-02-01T21:00:00Z,27.4847,-97.3181,0.0,8.4,139.0,10.6,'11111222,11111222,11111222' 
TCOON,ioos:station:TCOON:013:1,2017-02-01T21:06:00Z,27.4847,-97.3181,0.0,7.8,139.0,9.4,'11111222,11111222,11111222' 
TCOON,ioos:station:TCOON:013:1,2017-02-01T21:18:00Z,27.4847,-97.3181,0.0,8.6,141.0,10.1,'11111222,11111222,11111222' 
TCOON,ioos:station:TCOON:013:1,2017-02-01T21:24:00Z,27.4847,-97.3181,0.0,7.8,139.0,9.7,'11111222,11111222,11111222' 
TCOON,ioos:station:TCOON:013:1,2017-02-01T21:30:00Z,27.4847,-97.3181,0.0,8.3,137.0,9.9,'11111222,11111222,11111222' 
TCOON,ioos:station:TCOON:013:1,2017-02-01T21:42:00Z,27.4847,-97.3181,0.0,8.5,138.0,10.4,'11111222,11111222,11111222' 
TCOON,ioos:station:TCOON:013:1,2017-02-01T21:48:00Z,27.4847,-97.3181,0.0,8.0,138.0,10.1,'11111222,11111222,11111222' 
TCOON,ioos:station:TCOON:013:1,2017-02-01T21:54:00Z,27.4847,-97.3181,0.0,8.3,139.0,9.9,'11111222,11111222,11111222' 
TCOON,ioos:station:TCOON:013:1,2017-02-01T22:00:00Z,27.4847,-97.3181,0.0,8.1,135.0,9.9,'11111222,11111222,11111222' 
TCOON,ioos:station:TCOON:013:1,2017-02-01T22:06:00Z,27.4847,-97.3181,0.0,8.0,136.0,10.2,'11111222,11111222,11111222' 
TCOON,ioos:station:TCOON:013:1,2017-02-01T22:24:00Z,27.4847,-97.3181,0.0,8.2,139.0,9.7,'11111222,11111222,11111222' 
TCOON,ioos:station:TCOON:013:1,2017-02-01T22:30:00Z,27.4847,-97.3181,0.0,8.4,137.0,10.8,'11111222,11111222,11111222' 
TCOON,ioos:station:TCOON:013:1,2017-02-01T22:42:00Z,27.4847,-97.3181,0.0,7.6,139.0,10.2,'11111222,11111222,11111222' 
TCOON,ioos:station:TCOON:013:1,2017-02-01T22:48:00Z,27.4847,-97.3181,0.0,7.7,138.0,10.1,'11111222,11111222,11111222' 
TCOON,ioos:station:TCOON:013:1,2017-02-01T22:54:00Z,27.4847,-97.3181,0.0,7.7,138.0,10.1,'11111222,11111222,11111222' 
TCOON,ioos:station:TCOON:013:1,2017-02-01T23:00:00Z,27.4847,-97.3181,0.0,8.1,135.0,9.6,'11111222,11111222,11111222' 
TCOON,ioos:station:TCOON:013:1,2017-02-01T23:06:00Z,27.4847,-97.3181,0.0,8.0,135.0,10.0,'11111222,11111222,11111222' 
TCOON,ioos:station:TCOON:013:1,2017-02-01T23:12:00Z,27.4847,-97.3181,0.0,7.1,136.0,9.7,'11111222,11111222,11111222' 
TCOON,ioos:station:TCOON:013:1,2017-02-01T23:24:00Z,27.4847,-97.3181,0.0,7.0,136.0,8.6,'11111222,11111222,11111222' 
TCOON,ioos:station:TCOON:013:1,2017-02-01T23:36:00Z,27.4847,-97.3181,0.0,7.3,133.0,9.2,'11111222,11111222,11111222' 
TCOON,ioos:station:TCOON:013:1,2017-02-01T23:42:00Z,27.4847,-97.3181,0.0,6.2,135.0,8.5,'11111222,11111222,11111222' 
TCOON,ioos:station:TCOON:013:1,2017-02-01T23:48:00Z,27.4847,-97.3181,0.0,6.6,134.0,8.8,'11111222,11111222,11111222' 
TCOON,ioos:station:TCOON:013:1,2017-02-01T23:54:00Z,27.4847,-97.3181,0.0,6.7,134.0,8.2,'11111222,11111222,11111222' 
TCOON,ioos:station:TCOON:013:1,2017-02-02T00:00:00Z,27.4847,-97.3181,0.0,6.9,134.0,8.8,'11111222,11111222,11111222' 
TCOON,ioos:station:TCOON:013:1,2017-02-02T00:06:00Z,27.4847,-97.3181,0.0,7.1,137.0,9.2,'11111222,11111222,11111222' 
TCOON,ioos:station:TCOON:013:1,2017-02-02T00:12:00Z,27.4847,-97.3181,0.0,7.3,134.0,8.7,'11111222,11111222,11111222' 
TCOON,ioos:station:TCOON:013:1,2017-02-02T00:18:00Z,27.4847,-97.3181,0.0,6.9,136.0,8.6,'11111222,11111222,11111222' 